Time,TemperatureF,DewpointF,PressureIn,WindDirection,WindDirectionDegrees,WindSpeedMPH,WindSpeedGustMPH,Humidity,HourlyPrecipIn,Conditions,Clouds,dailyrainin,SoftwareType,DateUTC
2013-04-10 00:13:00,32.1,21.0,29.64,West,277,16.0,28.0,64,0.00,,,0.00,weatherlink.com 1.10,2013-04-10 07:13:00,
2013-04-10 00:28:00,32.4,21.0,29.64,NNW,346,16.0,33.0,63,0.00,,,0.00,weatherlink.com 1.10,2013-04-10 07:28:00,
2013-04-10 00:43:00,32.1,23.0,29.64,West,275,10.0,29.0,70,0.00,,,0.00,weatherlink.com 1.10,2013-04-10 07:43:00,
2013-04-10 00:58:00,31.4,22.0,29.63,SSW,208,11.0,29.0,68,0.00,,,0.00,weatherlink.com 1.10,2013-04-10 07:58:00,
2013-04-10 01:13:00,31.0,21.0,29.64,WSW,258,13.0,24.0,67,0.00,,,0.00,weatherlink.com 1.10,2013-04-10 08:13:00,
2013-04-10 01:28:00,30.8,20.0,29.63,West,264,13.0,28.0,64,0.00,,,0.00,weatherlink.com 1.10,2013-04-10 08:28:00,
2013-04-10 01:43:00,30.4,20.0,29.63,WSW,248,17.0,25.0,65,0.00,,,0.00,weatherlink.com 1.10,2013-04-10 08:43:00,
2013-04-10 01:58:00,30.2,19.0,29.63,WSW,252,12.0,21.0,63,0.00,,,0.00,weatherlink.com 1.10,2013-04-10 08:58:00,
2013-04-10 02:13:00,30.2,19.0,29.63,NW,318,10.0,23.0,63,0.00,,,0.00,weatherlink.com 1.10,2013-04-10 09:13:00,
2013-04-10 02:28:00,30.1,19.0,29.62,NNW,327,9.0,28.0,64,0.00,,,0.00,weatherlink.com 1.10,2013-04-10 09:28:00,
2013-04-10 02:43:00,30.4,18.0,29.62,West,260,12.0,26.0,61,0.00,,,0.00,weatherlink.com 1.10,2013-04-10 09:43:00,
2013-04-10 02:58:00,30.5,18.0,29.62,SW,236,14.0,24.0,60,0.00,,,0.00,weatherlink.com 1.10,2013-04-10 09:58:00,
2013-04-10 03:13:00,30.4,18.0,29.62,WNW,290,19.0,24.0,61,0.00,,,0.00,weatherlink.com 1.10,2013-04-10 10:13:00,
2013-04-10 03:28:00,30.4,17.0,29.63,WSW,258,17.0,29.0,59,0.00,,,0.00,weatherlink.com 1.10,2013-04-10 10:28:00,
2013-04-10 03:43:00,30.4,17.0,29.63,SW,221,11.0,28.0,58,0.00,,,0.00,weatherlink.com 1.10,2013-04-10 10:43:00,
2013-04-10 03:58:00,30.3,17.0,29.63,ESE,106,16.0,24.0,58,0.00,,,0.00,weatherlink.com 1.10,2013-04-10 10:58:00,
2013-04-10 04:13:00,30.5,17.0,29.64,WNW,287,13.0,31.0,58,0.00,,,0.00,weatherlink.com 1.10,2013-04-10 11:13:00,
2013-04-10 04:28:00,29.9,17.0,29.64,WSW,257,19.0,19.0,59,0.00,,,0.00,weatherlink.com 1.10,2013-04-10 11:28:00,
2013-04-10 04:43:00,29.8,17.0,29.65,North,1,7.0,18.0,59,0.00,,,0.00,weatherlink.com 1.10,2013-04-10 11:43:00,
2013-04-10 04:58:00,29.8,17.0,29.65,West,259,13.0,24.0,59,0.00,,,0.00,weatherlink.com 1.10,2013-04-10 11:58:00,
2013-04-10 05:13:00,29.4,17.0,29.66,SW,233,5.0,19.0,59,0.00,,,0.00,weatherlink.com 1.10,2013-04-10 12:13:00,
2013-04-10 05:28:00,28.6,16.0,29.66,SSE,148,5.0,11.0,60,0.00,,,0.00,weatherlink.com 1.10,2013-04-10 12:28:00,
2013-04-10 05:43:00,28.5,16.0,29.66,SW,225,12.0,13.0,61,0.00,,,0.00,weatherlink.com 1.10,2013-04-10 12:43:00,
2013-04-10 05:58:00,28.8,17.0,29.67,WSW,250,7.0,13.0,61,0.00,,,0.00,weatherlink.com 1.10,2013-04-10 12:58:00,
2013-04-10 06:13:00,28.4,17.0,29.68,West,262,2.0,5.0,62,0.00,,,0.00,weatherlink.com 1.10,2013-04-10 13:13:00,
2013-04-10 06:28:00,28.5,17.0,29.68,SW,218,3.0,10.0,62,0.00,,,0.00,weatherlink.com 1.10,2013-04-10 13:28:00,
2013-04-10 06:43:00,29.5,18.0,29.67,ENE,60,6.0,20.0,62,0.00,,,0.00,weatherlink.com 1.10,2013-04-10 13:43:00,
2013-04-10 06:58:00,30.6,17.0,29.68,SW,233,7.0,20.0,57,0.00,,,0.00,weatherlink.com 1.10,2013-04-10 13:58:00,
2013-04-10 07:13:00,30.7,18.0,29.69,West,269,5.0,9.0,59,0.00,,,0.00,weatherlink.com 1.10,2013-04-10 14:13:00,
2013-04-10 07:28:00,30.9,18.0,29.69,West,264,7.0,11.0,59,0.00,,,0.00,weatherlink.com 1.10,2013-04-10 14:28:00,
2013-04-10 07:43:00,31.6,18.0,29.70,SSW,203,2.0,8.0,58,0.00,,,0.00,weatherlink.com 1.10,2013-04-10 14:43:00,
2013-04-10 07:58:00,32.0,18.0,29.70,SW,226,6.0,9.0,57,0.00,,,0.00,weatherlink.com 1.10,2013-04-10 14:58:00,
2013-04-10 08:13:00,32.9,18.0,29.70,SW,221,5.0,6.0,54,0.00,,,0.00,weatherlink.com 1.10,2013-04-10 15:13:00,
2013-04-10 08:28:00,33.2,18.0,29.70,West,271,2.0,9.0,53,0.00,,,0.00,weatherlink.com 1.10,2013-04-10 15:28:00,
2013-04-10 08:43:00,33.3,18.0,29.71,SSE,157,1.0,10.0,54,0.00,,,0.00,weatherlink.com 1.10,2013-04-10 15:43:00,
2013-04-10 08:58:00,33.9,17.0,29.71,SSW,210,2.0,6.0,51,0.00,,,0.00,weatherlink.com 1.10,2013-04-10 15:58:00,
2013-04-10 09:14:00,34.2,19.0,29.71,WNW,289,8.0,14.0,53,0.00,,,0.00,weatherlink.com 1.10,2013-04-10 16:14:00,
2013-04-10 09:29:00,33.9,17.0,29.71,West,267,1.0,15.0,50,0.00,,,0.00,weatherlink.com 1.10,2013-04-10 16:29:00,
2013-04-10 09:44:00,34.0,17.0,29.72,WSW,255,5.0,13.0,50,0.00,,,0.00,weatherlink.com 1.10,2013-04-10 16:44:00,
2013-04-10 09:59:00,34.3,18.0,29.72,West,262,2.0,15.0,51,0.00,,,0.00,weatherlink.com 1.10,2013-04-10 16:59:00,
2013-04-10 10:14:00,34.9,16.0,29.73,SW,224,6.0,11.0,47,0.00,,,0.00,weatherlink.com 1.10,2013-04-10 17:14:00,
2013-04-10 10:29:00,35.7,18.0,29.73,West,259,3.0,10.0,48,0.00,,,0.00,weatherlink.com 1.10,2013-04-10 17:29:00,
2013-04-10 10:44:00,36.1,18.0,29.73,NNW,342,8.0,14.0,49,0.00,,,0.00,weatherlink.com 1.10,2013-04-10 17:44:00,
2013-04-10 10:59:00,37.2,18.0,29.73,ESE,109,1.0,13.0,46,0.00,,,0.00,weatherlink.com 1.10,2013-04-10 17:59:00,
2013-04-10 11:14:00,37.9,19.0,29.74,WSW,248,9.0,12.0,46,0.00,,,0.00,weatherlink.com 1.10,2013-04-10 18:14:00,
2013-04-10 11:29:00,37.9,19.0,29.73,West,281,6.0,12.0,47,0.00,,,0.00,weatherlink.com 1.10,2013-04-10 18:29:00,
2013-04-10 11:44:00,38.1,19.0,29.72,SW,224,9.0,17.0,46,0.00,,,0.00,weatherlink.com 1.10,2013-04-10 18:44:00,
2013-04-10 11:59:00,39.2,20.0,29.72,NW,321,4.0,11.0,47,0.00,,,0.00,weatherlink.com 1.10,2013-04-10 18:59:00,
2013-04-10 12:14:00,38.7,19.0,29.72,NW,317,7.0,17.0,45,0.00,,,0.00,weatherlink.com 1.10,2013-04-10 19:14:00,
2013-04-10 12:29:00,39.4,20.0,29.71,WNW,302,8.0,12.0,45,0.00,,,0.00,weatherlink.com 1.10,2013-04-10 19:29:00,
2013-04-10 12:44:00,40.1,20.0,29.71,WNW,283,2.0,9.0,45,0.00,,,0.00,weatherlink.com 1.10,2013-04-10 19:44:00,
2013-04-10 12:59:00,40.6,22.0,29.70,NNW,330,4.0,11.0,47,0.00,,,0.00,weatherlink.com 1.10,2013-04-10 19:59:00,
2013-04-10 13:14:00,41.5,22.0,29.71,West,274,4.0,9.0,47,0.00,,,0.00,weatherlink.com 1.10,2013-04-10 20:14:00,
2013-04-10 13:29:00,41.5,20.0,29.70,WSW,240,7.0,12.0,42,0.00,,,0.00,weatherlink.com 1.10,2013-04-10 20:29:00,
2013-04-10 13:44:00,41.7,22.0,29.70,SSW,194,3.0,15.0,46,0.00,,,0.00,weatherlink.com 1.10,2013-04-10 20:44:00,
2013-04-10 13:59:00,40.7,20.0,29.70,SW,222,4.0,15.0,44,0.00,,,0.00,weatherlink.com 1.10,2013-04-10 20:59:00,
2013-04-10 14:14:00,41.9,23.0,29.69,NW,319,7.0,18.0,47,0.00,,,0.00,weatherlink.com 1.10,2013-04-10 21:14:00,
2013-04-10 14:29:00,42.2,24.0,29.68,NNE,23,6.0,16.0,48,0.00,,,0.00,weatherlink.com 1.10,2013-04-10 21:29:00,
2013-04-10 14:44:00,41.0,22.0,29.68,SSW,204,11.0,16.0,47,0.00,,,0.00,weatherlink.com 1.10,2013-04-10 21:44:00,
2013-04-10 14:59:00,41.3,23.0,29.68,SE,139,5.0,17.0,48,0.00,,,0.00,weatherlink.com 1.10,2013-04-10 21:59:00,
2013-04-10 15:14:00,42.1,23.0,29.68,SE,131,4.0,16.0,47,0.00,,,0.00,weatherlink.com 1.10,2013-04-10 22:14:00,
2013-04-10 15:29:00,41.8,21.0,29.67,NW,321,11.0,14.0,44,0.00,,,0.00,weatherlink.com 1.10,2013-04-10 22:29:00,
2013-04-10 15:44:00,41.1,23.0,29.67,WSW,256,9.0,14.0,49,0.00,,,0.00,weatherlink.com 1.10,2013-04-10 22:44:00,
2013-04-10 15:59:00,41.3,22.0,29.67,WSW,253,4.0,14.0,46,0.00,,,0.00,weatherlink.com 1.10,2013-04-10 22:59:00,
2013-04-10 16:14:00,40.8,22.0,29.68,North,8,5.0,14.0,47,0.00,,,0.00,weatherlink.com 1.10,2013-04-10 23:14:00,
2013-04-10 16:29:00,42.0,22.0,29.68,North,349,7.0,11.0,45,0.00,,,0.00,weatherlink.com 1.10,2013-04-10 23:29:00,
2013-04-10 16:44:00,41.2,21.0,29.68,West,280,11.0,16.0,44,0.00,,,0.00,weatherlink.com 1.10,2013-04-10 23:44:00,
2013-04-10 16:59:00,40.5,21.0,29.68,West,266,8.0,13.0,46,0.00,,,0.00,weatherlink.com 1.10,2013-04-10 23:59:00,
2013-04-10 17:14:00,41.5,22.0,29.68,North,359,2.0,13.0,46,0.00,,,0.00,weatherlink.com 1.10,2013-04-11 00:14:00,
2013-04-10 17:29:00,40.7,22.0,29.68,WNW,282,10.0,15.0,48,0.00,,,0.00,weatherlink.com 1.10,2013-04-11 00:29:00,
2013-04-10 17:44:00,39.9,21.0,29.68,SW,224,6.0,15.0,48,0.00,,,0.00,weatherlink.com 1.10,2013-04-11 00:44:00,
2013-04-10 18:00:00,40.2,22.0,29.68,WSW,239,9.0,15.0,49,0.00,,,0.00,weatherlink.com 1.10,2013-04-11 01:00:00,
2013-04-10 18:15:00,38.9,23.0,29.69,NW,304,4.0,11.0,54,0.00,,,0.00,weatherlink.com 1.10,2013-04-11 01:15:00,
2013-04-10 18:30:00,37.2,23.0,29.69,NW,315,4.0,12.0,58,0.00,,,0.00,weatherlink.com 1.10,2013-04-11 01:30:00,
2013-04-10 18:45:00,35.7,24.0,29.69,NW,321,3.0,13.0,63,0.00,,,0.00,weatherlink.com 1.10,2013-04-11 01:45:00,
2013-04-10 19:00:00,35.1,25.0,29.69,WSW,252,9.0,10.0,67,0.00,,,0.00,weatherlink.com 1.10,2013-04-11 02:00:00,
2013-04-10 19:15:00,34.7,25.0,29.70,NW,322,2.0,9.0,69,0.00,,,0.00,weatherlink.com 1.10,2013-04-11 02:15:00,
2013-04-10 19:30:00,34.4,25.0,29.70,WNW,297,5.0,9.0,69,0.00,,,0.00,weatherlink.com 1.10,2013-04-11 02:30:00,
2013-04-10 19:45:00,34.0,26.0,29.70,NW,318,2.0,10.0,71,0.00,,,0.00,weatherlink.com 1.10,2013-04-11 02:45:00,
2013-04-10 20:00:00,33.8,25.0,29.70,WNW,302,2.0,8.0,71,0.00,,,0.00,weatherlink.com 1.10,2013-04-11 03:00:00,
2013-04-10 20:15:00,33.4,25.0,29.71,WNW,289,0.0,6.0,72,0.00,,,0.00,weatherlink.com 1.10,2013-04-11 03:15:00,
2013-04-10 20:45:00,33.0,25.0,29.72,ESE,118,0.0,3.0,72,0.00,,,0.00,weatherlink.com 1.10,2013-04-11 03:45:00,
2013-04-10 21:00:00,32.9,25.0,29.73,WSW,252,2.0,3.0,72,0.00,,,0.00,weatherlink.com 1.10,2013-04-11 04:00:00,
2013-04-10 21:15:00,32.9,25.0,29.74,West,271,1.0,3.0,72,0.00,,,0.00,weatherlink.com 1.10,2013-04-11 04:15:00,
2013-04-10 21:30:00,33.1,25.0,29.73,NW,311,1.0,6.0,72,0.00,,,0.00,weatherlink.com 1.10,2013-04-11 04:30:00,
2013-04-10 21:45:00,33.0,25.0,29.74,West,266,1.0,4.0,71,0.00,,,0.00,weatherlink.com 1.10,2013-04-11 04:45:00,
2013-04-10 22:00:00,33.1,24.0,29.74,WSW,253,0.0,1.0,69,0.00,,,0.00,weatherlink.com 1.10,2013-04-11 05:00:00,
2013-04-10 22:15:00,33.4,24.0,29.73,ENE,60,1.0,4.0,68,0.00,,,0.00,weatherlink.com 1.10,2013-04-11 05:15:00,
2013-04-10 22:30:00,33.9,23.0,29.73,NE,53,0.0,6.0,64,0.00,,,0.00,weatherlink.com 1.10,2013-04-11 05:30:00,
2013-04-10 22:45:00,33.6,23.0,29.74,WNW,289,2.0,6.0,64,0.00,,,0.00,weatherlink.com 1.10,2013-04-11 05:45:00,
2013-04-10 23:00:00,33.7,24.0,29.74,WNW,300,2.0,5.0,67,0.00,,,0.00,weatherlink.com 1.10,2013-04-11 06:00:00,
2013-04-10 23:15:00,33.5,24.0,29.75,West,262,6.0,6.0,67,0.00,,,0.00,weatherlink.com 1.10,2013-04-11 06:15:00,
2013-04-10 23:30:00,33.5,19.0,29.74,NW,323,1.0,3.0,56,0.00,,,0.00,weatherlink.com 1.10,2013-04-11 06:30:00,
2013-04-10 23:45:00,34.1,19.0,29.74,NNW,340,1.0,6.0,54,0.00,,,0.00,weatherlink.com 1.10,2013-04-11 06:45:00,